[[{"header":{"parameterUnit":"m.s-1","parameterCategory":1,"la1":30.2991,"la2":30.254,"lo1":-89.0895,"lo2":-89.0444,"dy":0.0017,"dx":0.0017,"nx":28,"ny":28,"refTime":"2023-09-25T03:00:00:Z","depth":0,"parameterNumber":2,"parameterNumberName":"U-component_of_WINDS"},"data":[0,0,0,0,0,0,0,0,0,0,0,0,0,0,0,0,0,0,0,0,0,0,0,0,0,0,0,0,0,0,0,0,0,0,0,0,0,0,0,0,0,0,0,0,0,0,0,0,0,0,0,0,0,0,0,0,0,0,-0.9521,-0.9521,0,-0.9512,-0.9512,-0.9512,-0.9453,-0.9451,-0.945,-0.9449,-0.9442,-0.9443,-0.9444,0,0,0,0,0,0,0,0,0,0,0,0,0,-0.9488,-0.9489,-0.9521,-0.9521,-0.9521,-0.9512,-0.9512,-0.9512,-0.9453,-0.9451,-0.945,-0.9448,-0.9441,-0.9443,-0.9444,0,0,0,0,0,0,0,0,0,0,0,0,0,-0.9493,-0.9489,-0.9521,-0.949,-0.9487,-0.9512,-0.9512,-0.9512,-0.9454,-0.9451,-0.9449,-0.9447,-0.9441,-0.9443,-0.9444,-0.9499,0,0,-0.945,-0.945,0,0,0,0,0,0,0,0,-0.9493,-0.9494,-0.9495,-0.9493,-0.9489,-0.9481,-0.9498,-0.9508,-0.9454,-0.9467,-0.9449,-0.9446,-0.9457,-0.9457,-0.946,-0.9498,-0.9498,-0.945,-0.9451,-0.9452,-0.9452,0,0,0,0,0,0,0,-0.9493,-0.9495,-0.9518,-0.9495,-0.9492,-0.9477,-0.9476,-0.95,-0.9474,-0.9465,-0.9461,-0.9461,-0.9455,-0.9459,-0.946,-0.9498,-0.945,-0.9451,-0.9452,-0.9453,-0.958,-0.9582,0,0,0,0,0,0,-0.9496,-0.9495,-0.9518,-0.9517,-0.9486,-0.948,-0.9478,-0.9486,-0.9474,-0.947,-0.9462,-0.9458,-0.9457,-0.9458,-0.9459,-0.9522,-0.9452,-0.9453,-0.9454,-0.9578,-0.9581,-0.9583,0,0,0,0,0,0,-0.9496,-0.9499,-0.9518,-0.9505,-0.9506,-0.9483,-0.9492,-0.9487,-0.9491,-0.9471,-0.9467,-0.9471,-0.9455,-0.9457,-0.9489,-0.9521,-0.9454,-0.9456,-0.9575,-0.9579,-0.9582,-0.9649,0,0,0,0,0,0,-0.9495,-0.9499,-0.9519,-0.9506,-0.9507,-0.9548,-0.9494,-0.9489,-0.9494,-0.9488,-0.9478,-0.9475,-0.9454,-0.9487,-0.9491,-0.9523,-0.9457,-0.9572,-0.9577,-0.9581,-0.9644,-0.9654,-0.9663,0,0,0,0,0,-0.9494,-0.9539,-0.9521,-0.9524,-0.9532,-0.955,-0.9551,-0.9525,-0.9497,-0.9517,-0.9504,-0.9475,-0.9517,-0.9491,-0.9495,-0.9527,-0.957,-0.9575,-0.958,-0.964,-0.9652,-0.9663,0,0,0,0,0,0,-0.9558,-0.9537,-0.9516,-0.9558,-0.9556,-0.954,-0.9565,-0.954,-0.9547,-0.9541,-0.9509,-0.9507,-0.9545,-0.9539,-0.951,-0.9579,-0.9538,-0.9545,-0.9582,-0.9594,-0.9603,-0.9605,-0.9458,0,0,0,0,0,-0.9577,-0.9593,-0.9574,-0.9612,-0.9613,-0.9589,-0.9596,-0.9576,-0.9574,-0.9573,-0.9562,-0.9561,-0.9574,-0.9583,-0.9594,-0.9642,-0.964,-0.9667,-0.9676,-0.9684,-0.9691,-0.9716,-0.9728,-0.96,-0.96,-0.96,0,0,-0.9617,-0.9607,-0.9619,-0.9625,-0.9621,-0.9639,-0.9589,-0.961,-0.9623,-0.9576,-0.9606,-0.9598,-0.9595,-0.9636,-0.9653,-0.9632,-0.9725,-0.9691,-0.9698,-0.97,-0.9723,-0.9735,-0.9746,-0.9604,-0.9603,-0.9603,0,0,-0.9698,-0.9692,-0.9723,-0.972,-0.9715,-0.9699,-0.9707,-0.9694,-0.9687,-0.9716,-0.9681,-0.9696,-0.9719,-0.9718,-0.9721,-0.9801,-0.9774,-0.9805,-0.9857,-0.9882,-0.9892,-0.9901,-0.993,-0.9941,-0.9811,-0.9811,-0.9811,0,-0.9748,-0.9773,-0.9743,-0.9766,-0.977,-0.9727,-0.9759,-0.9758,-0.9757,-0.9761,-0.9737,-0.9764,-0.9759,-0.9799,-0.9818,-0.9821,-0.983,-0.9807,-0.9892,-0.9901,-0.9909,-0.9936,-0.9947,-0.9815,-0.9815,-0.9814,-0.9814,0,-0.9835,-0.9853,-0.9879,-0.9878,-0.9885,-0.9913,-0.9887,-0.9898,-0.9877,-0.9864,-0.9894,-0.9886,-0.9894,-0.9902,-0.9882,-0.9939,-0.9926,-0.9898,-0.9856,-0.9925,-0.9951,-0.9961,-0.9821,-0.9819,-0.9818,-0.9817,0,0,-0.9958,-0.9939,-0.995,-0.9949,-0.9939,-0.9953,-0.9978,-0.9986,-0.9995,-0.9996,-1.0017,-1.0037,-1.001,-1.0013,-0.9993,-1.0015,-1.0079,-0.9983,-0.9983,-1.0003,-1.0142,-1.0164,-1.0177,-1.0061,-1.0063,-1.0064,-1.0143,0,-1.0037,-1.0079,-1.0052,-1.0099,-1.0116,-1.0074,-1.0097,-1.0094,-1.0081,-1.0094,-1.008,-1.0095,-1.0059,-1.006,-1.008,-1.0067,-1.0107,-1.0061,-1.0081,-1.0082,-1.0085,-1.019,-1.0214,-1.0289,-1.0152,-1.0154,-1.0155,0,-1.0135,-1.0138,-1.0187,-1.0174,-1.0179,-1.02,-1.0205,-1.0217,-1.0212,-1.0202,-1.0205,-1.0179,-1.0203,-1.0161,-1.0195,-1.0164,-1.0171,-1.0166,-1.0168,-1.017,-1.0124,-1.0196,-1.0312,-1.0323,-1.017,-1.0169,-1.0168,0,-1.0221,-1.0238,-1.0269,-1.0269,-1.0254,-1.027,-1.0265,-1.0258,-1.0264,-1.0268,-1.0271,-1.0278,-1.0283,-1.0289,-1.0266,-1.0237,-1.0303,-1.0259,-1.0296,-1.0297,-1.0313,-1.0312,-1.0432,-1.0315,-1.0315,-1.0315,-1.0314,0,-1.0312,-1.0344,-1.0307,-1.0327,-1.0361,-1.0329,-1.0364,-1.0354,-1.0349,-1.0366,-1.033,-1.0347,-1.0314,-1.0328,-1.031,-1.0341,-1.0343,-1.0336,-1.0331,-1.034,-1.0341,-1.0345,-1.034,-1.0318,-1.0317,-1.0316,-1.0316,0,-1.0415,-1.0392,-1.0423,-1.0406,-1.0402,-1.0428,-1.0414,-1.0431,-1.0416,-1.0438,-1.0441,-1.0418,-1.0432,-1.0409,-1.0421,-1.0408,-1.0452,-1.0439,-1.0454,-1.045,-1.0489,-1.0486,-1.0617,-1.0632,-1.0504,-1.0505,-1.0506,0,-1.0476,-1.0499,-1.0484,-1.0492,-1.0489,-1.0503,-1.0508,-1.0478,-1.0486,-1.0482,-1.05,-1.0511,-1.0518,-1.0543,-1.0528,-1.0536,-1.0524,-1.0568,-1.0525,-1.0533,-1.0525,-1.0525,-1.0527,-1.0578,-1.058,-1.0581,-1.0582,0,-1.0586,-1.0573,-1.0582,-1.0587,-1.0595,-1.0598,-1.0598,-1.0607,-1.0575,-1.0585,-1.0599,-1.0605,-1.0616,-1.0628,-1.0632,-1.0627,-1.06,-1.0595,-1.0605,-1.0615,-1.0623,-1.062,-1.048,-1.0593,-1.0592,-1.0591,-1.0591,-1.059,-1.067,-1.0689,-1.0681,-1.0692,-1.0689,-1.069,-1.0705,-1.0691,-1.0702,-1.0709,-1.069,-1.0708,-1.0703,-1.0706,-1.0704,-1.0718,-1.0698,-1.0712,-1.0715,-1.0719,-1.0726,-1.062,-1.0719,-1.0718,-1.0718,-1.0718,-1.0718,0,-1.078,-1.0772,-1.0783,-1.0784,-1.0793,-1.0764,-1.0763,-1.0773,-1.0789,-1.0786,-1.0793,-1.0809,-1.082,-1.0805,-1.0813,-1.0828,-1.0815,-1.0831,-1.083,-1.083,-1.0742,-1.0734,-1.0841,-1.0841,-1.0841,-1.0841,-1.0841,-1.0841,-1.0838,-1.0868,-1.0854,-1.0882,-1.0874,-1.0891,-1.0893,-1.0894,-1.0891,-1.091,-1.0918,-1.0908,-1.09,-1.0907,-1.0916,-1.0912,-1.0917,-1.0937,-1.0929,-1.0848,-1.0836,-1.0824,-1.0816,-1.0939,-1.0939,-1.1015,-1.1015,-1.1016]},{"header":{"parameterUnit":"m.s-1","parameterCategory":1,"la1":30.2991,"la2":30.254,"lo1":-89.0895,"lo2":-89.0444,"dy":0.0017,"dx":0.0017,"nx":28,"ny":28,"refTime":"2023-09-25T03:00:00:Z","depth":0,"parameterNumber":3,"parameterNumberName":"V-component_of_WINDS"},"data":[0,0,0,0,0,0,0,0,0,0,0,0,0,0,0,0,0,0,0,0,0,0,0,0,0,0,0,0,0,0,0,0,0,0,0,0,0,0,0,0,0,0,0,0,0,0,0,0,0,0,0,0,0,0,0,0,0,0,-2.3612,-2.3612,0,-2.3588,-2.3587,-2.3587,-2.354,-2.3539,-2.3538,-2.3537,-2.3513,-2.3513,-2.3513,0,0,0,0,0,0,0,0,0,0,0,0,0,-2.362,-2.362,-2.3612,-2.3612,-2.3612,-2.3588,-2.3587,-2.3587,-2.354,-2.3539,-2.3538,-2.3537,-2.3513,-2.3513,-2.3513,0,0,0,0,0,0,0,0,0,0,0,0,0,-2.3608,-2.362,-2.3612,-2.3585,-2.3583,-2.3588,-2.3587,-2.3587,-2.354,-2.3539,-2.3537,-2.3536,-2.3513,-2.3513,-2.3513,-2.3543,0,0,-2.3515,-2.3515,0,0,0,0,0,0,0,0,-2.3609,-2.3608,-2.3589,-2.3587,-2.3584,-2.3565,-2.3581,-2.3572,-2.3541,-2.3556,-2.3537,-2.3535,-2.3532,-2.353,-2.3529,-2.3542,-2.3541,-2.3515,-2.3515,-2.3515,-2.3515,0,0,0,0,0,0,0,-2.361,-2.3609,-2.3602,-2.3589,-2.3586,-2.3575,-2.3571,-2.3579,-2.3552,-2.3555,-2.3551,-2.3549,-2.353,-2.3529,-2.3528,-2.3541,-2.3515,-2.3515,-2.3515,-2.3515,-2.3578,-2.3579,0,0,0,0,0,0,-2.3614,-2.3609,-2.3603,-2.3602,-2.3593,-2.3576,-2.3572,-2.3573,-2.3552,-2.3547,-2.355,-2.3547,-2.3529,-2.3528,-2.3527,-2.356,-2.3515,-2.3515,-2.3515,-2.3576,-2.3578,-2.3579,0,0,0,0,0,0,-2.3614,-2.3614,-2.3604,-2.3605,-2.3603,-2.3577,-2.3578,-2.3573,-2.3572,-2.3548,-2.3543,-2.3554,-2.3528,-2.3526,-2.354,-2.3559,-2.3515,-2.3516,-2.3574,-2.3577,-2.3579,-2.3628,0,0,0,0,0,0,-2.3615,-2.3614,-2.3625,-2.3605,-2.3603,-2.3617,-2.3579,-2.3574,-2.3572,-2.3568,-2.355,-2.3546,-2.3526,-2.3539,-2.354,-2.3558,-2.3516,-2.3573,-2.3575,-2.3578,-2.3624,-2.3631,-2.3637,0,0,0,0,0,-2.3615,-2.364,-2.3626,-2.3626,-2.3616,-2.3618,-2.3617,-2.3593,-2.3574,-2.3585,-2.357,-2.3547,-2.3557,-2.3541,-2.3541,-2.356,-2.3571,-2.3575,-2.3578,-2.3621,-2.363,-2.3637,0,0,0,0,0,0,-2.3663,-2.3637,-2.3621,-2.364,-2.3632,-2.361,-2.3623,-2.3603,-2.36,-2.3596,-2.3567,-2.3564,-2.3581,-2.3572,-2.3555,-2.3588,-2.356,-2.3564,-2.3593,-2.3601,-2.3608,-2.3609,-2.3516,0,0,0,0,0,-2.3676,-2.368,-2.3657,-2.3676,-2.3673,-2.3649,-2.3649,-2.3632,-2.3622,-2.3618,-2.3604,-2.3596,-2.3597,-2.3599,-2.3599,-2.3623,-2.3618,-2.3636,-2.3643,-2.3648,-2.3651,-2.3663,-2.3671,-2.359,-2.359,-2.359,0,0,-2.3703,-2.3689,-2.3693,-2.3686,-2.3677,-2.3682,-2.3646,-2.3653,-2.3657,-2.362,-2.3631,-2.3621,-2.361,-2.3628,-2.3636,-2.3621,-2.3673,-2.3652,-2.3657,-2.3657,-2.3668,-2.3675,-2.3682,-2.3592,-2.3592,-2.3592,0,0,-2.3754,-2.3744,-2.3758,-2.3751,-2.3738,-2.3722,-2.3726,-2.3707,-2.3699,-2.371,-2.3682,-2.3686,-2.3689,-2.3682,-2.3679,-2.3728,-2.3706,-2.3729,-2.3763,-2.3775,-2.3781,-2.3787,-2.3804,-2.381,-2.3732,-2.3732,-2.3732,0,-2.3789,-2.3795,-2.3769,-2.3777,-2.3775,-2.3741,-2.3756,-2.375,-2.3738,-2.3737,-2.3721,-2.3724,-2.3714,-2.3731,-2.3743,-2.3742,-2.3745,-2.373,-2.3782,-2.3787,-2.3792,-2.3808,-2.3815,-2.3735,-2.3735,-2.3734,-2.3734,0,-2.3838,-2.3843,-2.3856,-2.3845,-2.3845,-2.3857,-2.3833,-2.3835,-2.3818,-2.3804,-2.3815,-2.3802,-2.3799,-2.3802,-2.3785,-2.3816,-2.3807,-2.3787,-2.3759,-2.3803,-2.3818,-2.3824,-2.3739,-2.3738,-2.3737,-2.3736,0,0,-2.3918,-2.3893,-2.3898,-2.3893,-2.3877,-2.388,-2.3891,-2.3887,-2.389,-2.3883,-2.3891,-2.3894,-2.3875,-2.3872,-2.3854,-2.3865,-2.3904,-2.3843,-2.3843,-2.3855,-2.3938,-2.3953,-2.3961,-2.389,-2.3891,-2.3892,-2.3939,0,-2.3965,-2.3981,-2.3958,-2.398,-2.3984,-2.3952,-2.3961,-2.3953,-2.394,-2.3942,-2.3928,-2.393,-2.3905,-2.3903,-2.3912,-2.3898,-2.3921,-2.3894,-2.3898,-2.3898,-2.3901,-2.3968,-2.3984,-2.4029,-2.3944,-2.3945,-2.3946,0,-2.4022,-2.4018,-2.404,-2.4022,-2.4023,-2.4032,-2.4027,-2.4029,-2.4019,-2.4009,-2.4005,-2.3984,-2.3993,-2.3966,-2.3979,-2.3961,-2.3961,-2.3954,-2.3956,-2.3955,-2.3925,-2.3969,-2.4042,-2.4049,-2.3955,-2.3954,-2.3953,0,-2.4079,-2.4078,-2.4091,-2.4088,-2.4068,-2.4074,-2.4067,-2.4055,-2.4054,-2.405,-2.4049,-2.4046,-2.4045,-2.4043,-2.4022,-2.4004,-2.4037,-2.4008,-2.4029,-2.403,-2.4037,-2.4037,-2.4111,-2.4038,-2.4038,-2.4038,-2.4038,0,-2.4134,-2.4148,-2.4116,-2.4124,-2.4139,-2.4113,-2.4129,-2.4118,-2.4108,-2.4114,-2.4086,-2.4092,-2.4064,-2.4067,-2.405,-2.4063,-2.4063,-2.4055,-2.405,-2.4057,-2.4058,-2.4057,-2.4053,-2.404,-2.4039,-2.4039,-2.4039,0,-2.4199,-2.4178,-2.419,-2.417,-2.4165,-2.4178,-2.4161,-2.4167,-2.4153,-2.416,-2.416,-2.4138,-2.414,-2.4118,-2.4116,-2.4105,-2.4126,-2.4116,-2.4129,-2.4126,-2.4148,-2.4146,-2.4224,-2.4233,-2.4154,-2.4155,-2.4156,0,-2.4235,-2.4245,-2.4227,-2.4228,-2.4221,-2.4224,-2.4223,-2.4198,-2.4198,-2.4188,-2.4196,-2.4195,-2.4194,-2.4198,-2.4182,-2.418,-2.417,-2.4197,-2.417,-2.4176,-2.417,-2.417,-2.4171,-2.4203,-2.4204,-2.4205,-2.4206,0,-2.4302,-2.4291,-2.429,-2.4287,-2.4286,-2.4282,-2.4276,-2.4279,-2.4252,-2.4253,-2.4255,-2.4254,-2.4251,-2.4252,-2.4247,-2.4239,-2.4218,-2.4214,-2.4219,-2.4226,-2.4233,-2.423,-2.4145,-2.4213,-2.4212,-2.4211,-2.4211,-2.4211,-2.4353,-2.4361,-2.4349,-2.4349,-2.4342,-2.4337,-2.4343,-2.4329,-2.4329,-2.4325,-2.4311,-2.4315,-2.4304,-2.4296,-2.429,-2.4293,-2.428,-2.4287,-2.4288,-2.429,-2.4294,-2.4233,-2.4292,-2.4292,-2.4291,-2.4291,-2.4291,0,-2.4418,-2.4409,-2.4409,-2.4402,-2.4402,-2.4382,-2.4375,-2.4377,-2.4381,-2.4373,-2.4371,-2.4373,-2.4373,-2.4357,-2.4355,-2.4361,-2.4351,-2.4361,-2.436,-2.4359,-2.4306,-2.4302,-2.4369,-2.4369,-2.4369,-2.4369,-2.4369,-2.4369,-2.4452,-2.4464,-2.4452,-2.446,-2.4451,-2.4454,-2.4452,-2.4447,-2.444,-2.4444,-2.4443,-2.4433,-2.4421,-2.4418,-2.4417,-2.4413,-2.4413,-2.4426,-2.4418,-2.437,-2.4362,-2.4355,-2.4351,-2.4427,-2.4427,-2.447,-2.4471,-2.4471]}]]